Temp
0 -0 -0 -0 -1 -1 -1 -1 -1 -2 -2 -4 -4 -5 -6 -6 -6 -5 -5 -4 -4 -3 -3 -1 -0 1 1 1 1 1 2 3 3 4 4 5 5 6 6 6 8 8 9 9 9
-0 -0 -0 -1 -1 -1 -1 -2 -2 -2 -3 -4 -5 -6 -6 -6 -6 -6 -6 -5 -4 -4 -3 -2 -1 -1 -0 1 1 1 1 3 3 3 3 4 4 5 6 6 7 8 8 9 9
-0 -1 -1 -1 -1 -1 -2 -2 -3 -3 -4 -4 -5 -6 -6 -6 -6 -6 -6 -5 -4 -4 -3 -3 -2 -2 -0 -0 1 1 1 2 2 3 2 4 3 4 5 6 6 7 8 8 9
-0 -1 -1 -1 -2 -2 -2 -3 -3 -3 -4 -5 -5 -6 -6 -7 -7 -6 -5 -5 -4 -4 -3 -3 -2 -2 -2 -0 1 1 1 1 1 2 2 2 3 4 5 6 6 7 7 8 8
-0 -0 -1 -1 -1 -2 -2 -3 -4 -4 -5 -5 -6 -6 -6 -7 -6 -6 -5 -5 -5 -4 -5 -3 -3 -3 -3 -2 -0 0 0 1 1 1 2 2 3 3 4 5 6 6 7 7 7
-0 -0 -1 -1 -1 -2 -2 -4 -4 -5 -5 -6 -6 -6 -6 -7 -7 -6 -6 -5 -5 -5 -4 -3 -3 -4 -3 -2 -1 -0 0 0 1 2 1 2 3 3 3 4 5 6 6 6 6
-0 -1 -1 -1 -1 -2 -3 -4 -4 -5 -6 -6 -6 -6 -7 -7 -7 -6 -6 -6 -5 -4 -4 -3 -3 -3 -3 -2 -1 -1 -0 1 1 1 1 2 2 3 3 3 4 5 5 6 6
-0 -1 -1 -1 -2 -2 -3 -4 -5 -5 -6 -6 -7 -7 -7 -7 -7 -7 -6 -7 -6 -5 -5 -3 -3 -3 -2 -2 -1 -1 -1 -0 0 0 1 1 2 3 3 3 3 3 4 5 6
-0 -1 -1 -1 -2 -2 -3 -4 -5 -5 -6 -7 -7 -7 -7 -7 -7 -7 -7 -7 -6 -6 -5 -3 -3 -3 -2 -2 -2 -2 0 1 -0 0 0 1 1 1 1 3 3 3 3 4 5
-0 -1 -1 -1 -1 -2 -3 -4 -4 -5 -6 -6 -7 -7 -7 -7 -7 -7 -8 -7 -7 -6 -5 -4 -3 -3 -3 -2 -1 -1 1 0 -0 -1 -0 -0 0 1 1 2 3 3 3 3 5
-0 -1 -1 -1 -1 -2 -3 -4 -4 -5 -6 -6 -7 -7 -7 -7 -7 -7 -8 -7 -7 -5 -5 -4 -4 -3 -3 -2 -0 -1 -1 -1 -1 -1 -0 -1 -1 1 2 2 2 2 3 3 4
-0 -1 -1 -1 -1 -2 -2 -3 -4 -5 -6 -6 -7 -7 -7 -7 -7 -7 -8 -7 -7 -6 -5 -4 -4 -4 -3 -3 -2 -1 -1 -0 -1 -1 -1 -0 1 1 2 2 2 3 2 3 3
-0 -1 -1 -1 -1 -2 -2 -3 -4 -5 -5 -6 -6 -7 -7 -7 -7 -7 -7 -7 -5 -6 -5 -5 -4 -4 -3 -3 -2 -1 -0 -0 0 -1 -1 -1 -0 1 2 2 3 2 2 3 3
-0 -1 -1 -1 -1 -2 -2 -3 -4 -5 -5 -6 -6 -7 -7 -7 -8 -7 -7 -7 -6 -6 -5 -4 -4 -3 -3 -3 -1 -2 -1 -1 -0 -0 1 -1 4 1 1 3 3 5 3 4 3
-0 -0 -1 -1 -1 -2 -2 -3 -4 -5 -3 -6 -6 -7 -6 -7 -7 -7 -7 -6 -6 -5 -4 -4 -3 -3 -3 -3 -2 -1 -1 -1 -1 0 -0 -0 0 3 2 2 2 2 3 2 3
-0 -0 -1 -1 -1 -1 -2 -3 -4 -5 -5 -5 -6 -7 -6 -7 -7 -7 -6 -5 -5 -5 -4 -4 -4 -3 -3 -2 -2 -1 -1 -2 -1 -0 1 1 1 3 2 1 1 3 3 2 3
-0 -0 -1 -1 -1 -1 -1 -2 -3 -4 -5 -5 -6 -6 -6 -6 -7 -6 -5 -5 -5 -4 -4 -4 -4 -3 -3 -2 -2 -1 -1 -1 -1 -1 2 -0 -0 2 2 1 2 2 2 2 2
0 -0 -1 -1 -2 -1 -1 -2 -3 -4 -5 -5 -5 -5 -6 -6 -6 -6 -6 -4 -3 -3 -4 -3 -4 -3 -3 -2 -2 -1 -0 1 1 1 2 -1 1 2 2 3 2 2 2 3 2
1 -0 -1 -2 -2 -1 -1 -2 -3 -4 -4 -4 -5 -5 -5 -5 -5 -5 -5 -4 -3 -3 -3 -3 -3 -3 -3 -2 -2 -2 -2 -1 -1 -2 1 1 1 2 2 2 2 2 2 2 2
1 0 -1 -2 -2 -2 -2 -2 -3 -4 -4 -4 -4 -4 -4 -5 -5 -5 -3 -3 -3 -3 -3 -3 -3 -3 -3 -2 -2 -2 -1 -1 -1 -0 1 1 1 3 2 2 2 3 2 2 2
1 -0 -1 -3 -2 -2 -2 -3 -3 -4 -4 -4 -4 -4 -4 -4 -3 -3 -4 -4 -3 -4 -3 -3 -2 -3 -3 -3 -2 -2 -2 -1 -1 -1 2 2 3 1 2 2 2 2 2 2 3
1 -1 -1 -3 -3 -2 -3 -3 -3 -4 -4 -4 -4 -3 -3 -3 -3 -3 -3 -4 -3 -3 -3 -3 -2 -3 -3 -3 -3 -2 -2 -1 -1 -1 -2 -1 2 2 2 1 1 2 2 2 2
1 -0 -1 -3 -3 -3 -3 -3 -4 -4 -4 -4 -4 -3 -3 -3 -3 -3 -3 -3 -4 -4 -3 -3 -3 -3 -3 -3 -3 -3 -2 -2 -2 -1 -3 1 2 2 2 1 2 2 2 1 1
0 -1 -1 -3 -3 -3 -3 -4 -4 -4 -4 -3 -3 -3 -3 -3 -3 -3 -3 -3 -3 -3 -3 -3 -2 -2 -1 -1 -2 -2 -1 -2 -2 -3 -1 -1 0 1 1 1 1 1 2 2 1
0 -0 -1 -2 -3 -3 -4 -4 -4 -4 -4 -3 -3 -3 -3 -3 -3 -3 -3 -3 -3 -3 -3 -3 -2 -2 -2 -2 -2 -2 -2 -1 -2 -1 -2 -0 -0 -1 1 1 1 1 1 1 1
1 -0 -1 -2 -3 -3 -4 -4 -4 -4 -4 -3 -3 -3 -3 -3 -2 -3 -3 -3 -3 -3 -3 -3 -3 -3 -2 -2 -3 -2 -2 -2 -2 -2 -3 -3 -2 -1 0 -0 0 0 -0 -1 -0
0 0 -1 -1 -2 -3 -4 -4 -4 -4 -4 -4 -4 -4 -4 -3 -3 -3 -3 -3 -3 -3 -3 -3 -3 -3 -3 -3 -3 -3 -0 -1 -0 -0 -0 -2 0 -1 -1 -2 -1 -1 -0 0 -1
Height
3100 3096 3093 3090 3086 3083 3078 3074 3069 3065 3061 3057 3055 3053 3052 3053 3052 3054 3056 3063 3066 3069 3073 3080 3086 3092 3100 3106 3112 3118 3122 3126 3131 3138 3142 3144 3148 3152 3155 3156 3158 3161 3164 3168 3171
3097 3093 3090 3086 3083 3079 3074 3070 3065 3062 3058 3054 3051 3048 3049 3048 3047 3050 3053 3054 3060 3066 3071 3075 3081 3088 3096 3100 3106 3111 3116 3120 3130 3137 3137 3141 3146 3149 3153 3154 3156 3158 3162 3165 3168
3094 3090 3086 3082 3079 3075 3070 3066 3062 3058 3055 3051 3049 3048 3046 3045 3045 3048 3049 3050 3053 3058 3064 3072 3079 3085 3091 3095 3101 3106 3110 3121 3127 3133 3133 3139 3144 3147 3150 3152 3153 3155 3159 3162 3166
3090 3086 3082 3079 3076 3071 3067 3063 3059 3055 3052 3049 3047 3046 3045 3044 3047 3045 3046 3048 3050 3055 3061 3068 3074 3080 3085 3091 3098 3104 3109 3118 3120 3124 3131 3137 3142 3145 3147 3149 3150 3153 3156 3160 3164
3087 3084 3079 3076 3072 3068 3064 3060 3057 3053 3051 3048 3047 3045 3044 3044 3044 3044 3044 3046 3047 3052 3058 3065 3071 3076 3083 3089 3094 3100 3106 3113 3116 3122 3127 3133 3138 3142 3144 3146 3148 3151 3154 3157 3161
3084 3080 3075 3072 3069 3065 3062 3058 3054 3052 3050 3049 3047 3046 3045 3044 3043 3042 3043 3044 3045 3049 3054 3061 3067 3075 3082 3085 3090 3097 3103 3110 3114 3118 3123 3130 3135 3139 3142 3143 3146 3149 3152 3154 3158
3081 3076 3072 3069 3066 3063 3059 3055 3053 3051 3049 3048 3047 3046 3046 3045 3042 3041 3041 3042 3044 3045 3052 3056 3063 3071 3076 3082 3089 3095 3102 3107 3111 3116 3120 3126 3129 3132 3138 3141 3144 3146 3149 3152 3155
3078 3073 3068 3065 3063 3060 3057 3053 3051 3050 3048 3046 3046 3046 3045 3044 3042 3040 3040 3041 3041 3045 3050 3055 3060 3067 3074 3081 3090 3095 3102 3105 3109 3112 3117 3123 3123 3131 3135 3138 3141 3143 3146 3149 3151
3075 3071 3066 3063 3061 3058 3054 3052 3049 3048 3046 3045 3045 3044 3045 3043 3042 3040 3039 3039 3041 3044 3050 3054 3057 3063 3074 3081 3088 3092 3096 3102 3107 3110 3113 3118 3118 3127 3127 3131 3137 3140 3143 3145 3148
3073 3069 3063 3061 3059 3056 3052 3050 3048 3047 3045 3044 3043 3045 3043 3043 3041 3040 3038 3039 3041 3045 3052 3053 3058 3062 3071 3077 3080 3086 3094 3101 3105 3107 3109 3114 3118 3118 3123 3127 3133 3137 3139 3141 3145
3071 3066 3061 3059 3056 3053 3050 3048 3049 3047 3044 3043 3042 3041 3040 3041 3041 3040 3038 3040 3040 3044 3050 3055 3058 3060 3069 3078 3084 3089 3095 3100 3103 3103 3109 3111 3113 3114 3117 3123 3126 3131 3134 3137 3141
3068 3063 3059 3057 3054 3051 3048 3046 3045 3046 3044 3042 3040 3038 3038 3039 3039 3038 3037 3040 3042 3043 3051 3056 3059 3066 3071 3078 3084 3089 3095 3100 3103 3103 3108 3109 3108 3110 3112 3116 3119 3126 3129 3132 3136
3065 3060 3057 3054 3052 3050 3047 3045 3043 3043 3045 3043 3041 3039 3039 3039 3038 3037 3038 3040 3042 3045 3051 3058 3061 3066 3073 3079 3084 3089 3094 3098 3100 3101 3106 3108 3107 3105 3107 3109 3113 3119 3124 3127 3129
3063 3058 3055 3053 3052 3048 3046 3044 3042 3041 3044 3046 3042 3041 3040 3038 3038 3036 3038 3041 3043 3048 3054 3060 3061 3066 3072 3079 3085 3088 3093 3097 3098 3102 3104 3104 3101 3100 3102 3103 3106 3111 3114 3120 3123
3061 3056 3054 3050 3050 3047 3047 3043 3042 3043 3044 3047 3044 3042 3040 3041 3041 3038 3041 3044 3045 3049 3055 3060 3063 3067 3073 3079 3084 3089 3091 3095 3099 3102 3103 3103 3106 3098 3099 3096 3099 3100 3105 3108 3118
3058 3054 3052 3050 3049 3047 3044 3043 3043 3046 3047 3047 3045 3044 3043 3043 3043 3042 3044 3048 3050 3054 3058 3061 3062 3067 3074 3080 3084 3087 3091 3096 3099 3102 3102 3100 3104 3096 3097 3095 3096 3097 3101 3105 3108
3056 3053 3050 3049 3048 3046 3044 3044 3045 3046 3049 3050 3047 3046 3045 3045 3046 3046 3048 3051 3053 3057 3058 3062 3065 3068 3074 3079 3083 3086 3090 3096 3101 3100 3095 3096 3100 3094 3094 3092 3092 3093 3096 3099 3101
3054 3052 3049 3048 3046 3046 3045 3045 3045 3049 3047 3048 3048 3048 3049 3049 3050 3051 3052 3054 3057 3059 3061 3063 3070 3070 3074 3079 3081 3085 3088 3088 3088 3090 3090 3095 3093 3090 3089 3089 3088 3090 3091 3093 3098
3053 3050 3048 3046 3045 3046 3046 3045 3046 3048 3049 3049 3049 3050 3052 3052 3053 3055 3055 3056 3058 3059 3063 3065 3066 3070 3074 3078 3082 3084 3087 3088 3089 3091 3091 3090 3090 3089 3086 3087 3087 3087 3089 3090 3092
3052 3050 3047 3045 3044 3045 3046 3045 3047 3048 3050 3051 3051 3052 3054 3055 3056 3057 3057 3058 3059 3060 3062 3062 3067 3071 3074 3078 3081 3083 3087 3090 3089 3090 3087 3089 3087 3085 3086 3086 3085 3085 3085 3086 3088
3051 3049 3046 3044 3044 3045 3045 3046 3048 3049 3051 3052 3052 3053 3055 3056 3056 3058 3060 3059 3058 3058 3061 3063 3067 3073 3077 3077 3080 3082 3083 3086 3088 3088 3084 3084 3084 3084 3084 3085 3084 3082 3082 3083 3084
3049 3048 3046 3044 3045 3044 3045 3046 3048 3050 3051 3052 3054 3055 3056 3056 3057 3058 3058 3058 3059 3061 3062 3063 3066 3071 3074 3075 3078 3079 3080 3084 3085 3087 3087 3088 3084 3082 3082 3083 3084 3084 3083 3081 3078
3047 3045 3044 3044 3043 3044 3045 3046 3048 3050 3051 3053 3055 3056 3056 3057 3059 3057 3057 3057 3059 3061 3064 3064 3066 3070 3075 3078 3076 3076 3077 3079 3082 3082 3081 3083 3078 3078 3079 3079 3080 3080 3080 3080 3079
3046 3044 3044 3043 3042 3043 3045 3047 3048 3050 3051 3053 3053 3053 3054 3055 3056 3057 3058 3058 3059 3062 3065 3066 3066 3066 3066 3067 3069 3070 3071 3074 3077 3077 3078 3072 3076 3076 3076 3076 3076 3074 3075 3075 3077
3045 3043 3043 3041 3041 3042 3044 3046 3047 3049 3051 3051 3052 3053 3054 3054 3054 3055 3057 3058 3060 3062 3063 3064 3064 3064 3064 3065 3066 3066 3067 3068 3068 3070 3068 3071 3067 3071 3072 3073 3072 3072 3071 3072 3073
3044 3042 3040 3039 3039 3040 3042 3044 3045 3047 3049 3049 3051 3051 3053 3054 3055 3055 3056 3058 3059 3061 3063 3064 3065 3065 3065 3065 3064 3064 3064 3063 3063 3063 3059 3062 3055 3065 3064 3061 3062 3064 3065 3066 3067
3043 3041 3039 3037 3037 3038 3040 3041 3043 3045 3048 3049 3051 3052 3054 3054 3055 3056 3056 3058 3058 3060 3061 3063 3064 3065 3066 3065 3064 3062 3056 3057 3057 3056 3055 3053 3054 3056 3055 3054 3054 3055 3057 3058 3060
Wind_Speed
18 19 20 22 23 24 26 25 26 28 24 20 19 19 20 19 18 21 23 32 24 23 27 29 32 36 41 41 41 42 35 35 34 26 21 25 26 25 16 19 27 28 26 24 22
19 19 19 21 22 23 25 24 24 26 21 18 16 12 13 19 12 12 17 30 32 23 28 27 28 33 39 41 42 42 39 38 33 27 25 29 25 25 20 15 23 28 26 26 26
22 20 19 20 22 22 23 23 22 22 19 15 14 12 12 12 7 10 13 26 25 37 28 25 27 30 36 37 40 42 40 30 26 29 26 28 25 20 22 19 23 28 27 26 26
23 21 19 20 21 21 22 22 20 20 16 14 11 10 10 9 3 9 13 18 27 28 34 29 30 33 34 36 40 33 34 28 25 28 30 30 29 18 22 20 22 27 28 24 25
24 23 19 18 20 20 21 20 18 18 13 10 10 9 7 6 7 7 8 17 18 28 32 26 29 30 27 26 36 36 28 30 21 27 28 31 36 18 20 22 22 26 27 27 27
25 24 19 17 19 20 20 18 15 16 9 6 7 8 8 3 3 9 10 15 22 27 31 28 30 27 25 25 28 34 26 31 34 33 34 32 39 29 19 22 23 26 27 27 27
26 23 19 17 18 20 19 16 14 14 9 6 5 7 10 5 3 6 11 15 21 26 37 26 28 30 25 23 26 23 28 24 31 37 28 33 35 46 27 19 22 23 25 28 28
28 24 20 16 16 19 18 15 12 12 9 8 8 10 12 5 3 6 10 13 21 24 43 29 26 30 26 22 26 17 25 22 28 26 32 30 38 44 43 28 20 21 26 29 29
29 25 19 16 16 19 17 14 9 10 10 10 10 12 11 3 3 5 8 9 14 24 38 25 17 28 28 24 22 21 20 33 23 30 27 32 28 21 36 44 30 23 22 31 30
29 26 20 16 17 18 15 12 7 8 8 8 8 7 6 2 1 4 7 6 11 23 37 28 20 26 25 27 26 21 18 23 21 26 29 27 28 24 36 44 40 30 23 30 32
29 25 20 16 16 16 14 10 6 3 8 8 6 8 9 7 5 4 6 7 10 28 41 27 27 26 23 23 16 16 15 16 13 21 21 20 19 22 30 33 45 42 32 28 33
28 24 20 15 15 16 14 10 4 1 6 10 7 4 8 10 7 6 5 9 12 22 28 18 25 25 22 20 14 18 16 16 11 10 12 12 17 16 19 27 35 49 35 34 35
29 23 19 15 15 15 13 9 5 2 4 10 9 5 3 4 5 6 7 13 17 21 19 24 11 21 26 23 16 18 21 17 11 12 12 8 16 23 23 23 24 30 37 42 40
27 22 18 14 14 15 12 9 4 3 3 8 13 6 5 4 4 4 8 13 16 23 22 21 11 23 26 22 17 18 20 16 14 13 7 13 5 13 26 27 25 29 35 46 44
25 20 17 14 13 13 12 8 4 6 1 7 9 4 4 3 4 8 13 16 16 23 20 14 14 17 27 22 19 9 18 17 13 13 7 9 8 10 15 23 28 27 31 43 49
23 19 16 13 12 12 11 6 6 3 4 3 6 3 8 3 4 14 17 19 22 19 16 12 25 16 27 19 19 15 18 13 10 10 8 15 15 7 8 12 17 23 25 44 51
21 19 14 12 12 11 10 4 5 5 2 4 7 6 5 7 9 14 21 15 11 17 14 16 15 16 31 21 14 21 23 7 5 6 6 6 13 17 9 12 8 14 18 24 53
20 19 14 11 11 10 7 6 6 7 8 6 8 12 13 10 6 12 19 15 12 10 15 5 6 20 30 25 17 22 19 5 6 5 6 7 7 4 5 3 5 11 17 24 30
20 18 14 10 9 8 7 6 4 5 8 8 9 6 6 8 9 10 10 9 9 17 5 6 4 12 30 24 22 22 15 5 5 4 2 4 7 13 9 9 4 7 17 17 24
19 19 12 10 7 6 6 5 6 6 7 5 5 5 6 9 8 7 9 6 5 12 12 12 8 16 31 17 17 18 18 6 2 5 4 2 5 5 4 3 4 8 11 22 23
17 17 12 8 6 5 5 7 7 5 4 6 8 10 12 5 7 5 7 5 11 16 15 16 10 16 25 15 16 16 16 10 5 2 2 2 3 12 11 9 10 9 5 11 23
16 13 13 6 5 3 5 5 6 5 8 9 9 9 8 8 4 1 4 5 8 11 18 10 10 15 18 16 21 21 15 18 13 6 6 2 6 14 12 4 5 6 12 10 7
14 14 8 4 2 3 4 5 5 6 7 5 5 8 8 4 3 4 5 3 11 9 8 10 9 11 7 13 20 24 28 23 21 17 12 8 5 10 21 18 14 4 12 15 10
11 8 7 4 2 4 5 5 5 6 6 7 7 6 6 6 5 6 7 7 15 12 8 10 12 7 10 5 13 21 33 32 30 19 20 27 19 16 10 13 15 18 24 27 16
9 6 7 4 3 6 7 6 7 6 6 8 7 6 5 4 6 6 6 10 14 11 7 5 4 7 6 8 8 9 13 28 37 37 31 23 28 27 29 31 35 36 28 22 17
7 9 6 5 4 7 9 10 9 8 7 8 7 7 6 5 4 6 9 9 6 11 9 8 4 5 8 10 13 14 15 19 22 25 33 33 41 30 32 36 36 31 29 19 16
5 5 4 4 3 8 11 12 13 12 8 9 8 7 5 5 6 6 8 8 6 8 9 8 6 4 4 7 8 13 22 26 25 24 26 30 26 22 21 19 22 23 22 23 27
Wind_Direction
325 320 319 319 317 324 324 326 324 326 320 312 301 285 269 261 259 227 227 220 227 210 200 204 206 204 208 209 208 211 210 215 211 208 206 210 217 211 202 200 199 198 194 187 190
329 323 321 323 325 327 324 327 327 328 324 320 309 292 270 267 230 238 230 219 219 204 200 200 201 201 200 205 206 207 215 217 216 216 218 215 218 218 214 206 200 198 196 192 191
337 329 322 325 333 332 326 329 328 330 327 325 319 297 281 273 211 241 239 221 219 201 194 187 199 198 197 199 203 205 214 211 214 209 209 215 214 220 219 219 205 196 190 191 190
345 332 324 326 335 334 325 328 331 332 330 336 327 305 291 291 217 236 230 219 213 221 202 189 192 196 189 199 201 204 208 208 205 203 205 207 212 214 217 220 213 201 197 193 188
340 338 323 326 335 335 328 327 332 333 334 350 350 345 335 290 245 243 240 209 199 199 219 185 192 190 189 193 201 201 205 194 193 191 198 206 208 199 202 214 217 207 200 195 192
340 340 326 326 334 335 330 325 330 332 330 343 354 5 7 333 234 229 232 203 192 197 201 180 190 186 185 190 194 204 201 207 210 208 207 202 207 214 206 205 209 207 199 195 196
343 341 329 324 332 335 332 326 326 330 316 312 334 345 358 348 295 240 223 198 194 198 185 180 190 187 187 183 187 198 197 204 215 208 209 207 212 214 213 207 202 202 198 197 199
345 342 333 324 327 338 337 328 323 326 306 287 295 311 333 320 277 250 233 219 212 208 171 170 191 181 178 185 187 181 197 198 211 211 220 224 217 213 223 213 205 200 199 200 202
345 343 335 323 330 340 340 330 324 330 318 290 288 302 317 316 240 268 260 246 193 190 177 182 162 160 175 171 171 183 192 208 213 216 220 221 230 230 222 223 217 210 210 202 203
344 343 338 330 335 341 340 335 324 340 345 327 312 299 279 280 179 250 265 238 223 180 178 196 181 166 167 172 180 180 191 190 207 204 218 221 227 236 226 232 226 222 226 207 204
344 344 341 336 333 342 343 340 331 351 354 359 333 267 270 273 278 258 256 219 221 169 173 181 186 180 176 176 184 178 175 181 191 206 209 222 227 242 232 243 232 227 223 221 207
345 342 344 339 338 346 342 341 325 310 8 5 1 314 270 275 279 258 235 196 203 176 187 183 178 180 179 170 168 178 176 181 182 199 195 224 235 241 240 239 230 225 230 226 207
344 342 345 342 342 344 345 350 343 206 21 14 359 10 7 298 298 190 181 171 186 190 173 185 193 183 177 172 167 177 186 185 175 165 191 210 248 233 231 221 225 226 238 228 208
344 343 347 341 343 350 356 356 12 141 75 14 19 27 67 356 316 64 162 149 173 191 156 186 141 180 171 175 169 176 180 178 172 171 213 209 267 246 234 238 231 236 229 216 214
346 345 350 343 345 355 359 6 66 112 65 5 11 54 49 78 66 70 111 141 170 174 168 179 170 188 179 174 169 169 176 192 199 202 215 215 241 261 237 237 233 226 224 208 211
346 346 353 341 348 356 7 27 76 92 54 57 30 60 95 86 106 103 117 122 140 169 160 171 202 172 168 165 169 182 159 159 173 197 238 228 216 261 248 258 252 242 221 213 205
346 348 351 343 352 3 16 48 78 43 62 44 80 86 78 105 119 116 127 122 115 161 126 144 176 158 160 157 167 162 153 129 181 208 232 199 217 239 267 293 288 230 226 224 212
346 349 346 352 357 13 35 76 73 87 96 78 100 84 79 101 115 128 137 124 142 161 163 130 167 168 170 183 177 172 172 188 194 197 193 192 222 258 261 297 277 227 216 211 216
345 347 342 356 2 27 57 65 103 141 127 115 75 68 73 103 118 131 150 134 129 168 143 159 124 161 174 174 165 182 199 180 102 127 201 183 246 263 293 266 259 237 233 226 219
344 342 341 353 13 44 70 86 110 109 112 112 104 101 124 131 125 131 160 223 245 196 181 161 120 184 180 160 178 180 195 196 185 171 216 161 246 186 78 45 292 269 257 233 231
341 341 339 350 34 68 84 112 116 103 98 91 112 104 133 151 143 146 187 212 144 163 175 156 151 161 185 200 200 197 210 208 191 203 264 178 178 164 125 77 48 24 319 232 229
339 335 330 335 39 81 101 127 127 110 121 115 110 117 122 134 176 166 177 207 161 124 143 154 157 153 187 194 207 210 212 213 227 215 219 274 235 200 211 288 293 32 36 20 272
337 330 324 307 91 132 145 139 146 136 142 124 113 117 118 121 165 205 189 196 169 139 148 162 160 142 160 225 224 222 224 222 225 235 221 234 214 222 238 239 238 256 329 340 7
338 328 324 289 201 172 167 165 163 164 155 150 138 137 127 105 126 160 173 161 168 177 182 184 178 185 196 207 209 225 232 230 231 233 241 237 244 241 245 238 233 275 305 298 292
350 327 313 289 219 200 188 186 181 179 179 178 180 190 184 142 123 155 170 167 176 186 184 190 232 228 226 241 233 237 242 238 236 240 237 254 250 254 256 255 261 272 279 287 264
356 336 320 292 242 214 204 203 197 195 182 192 198 197 199 211 161 153 156 167 175 201 209 214 231 238 251 249 248 251 243 240 243 246 252 254 263 260 271 271 268 269 273 268 216
18 7 13 350 235 216 214 216 207 204 197 195 191 187 175 181 179 161 172 180 188 184 204 218 227 232 249 251 263 269 253 245 254 259 263 257 279 280 278 276 262 250 253 249 237